Location: Hawks Ness
(60.2333°N, 1.1667°W)
Time: 20:26:16
(UTC+00:00)

Lacrosse 4 Rocket - Pass Details

Date: 22 October 2019
Orbit: 544 x 615 km, 68.0° (Epoch: 22 November)

Event Time Altitude Azimuth Distance (km) Brightness Sun altitude
Exits shadow 02:24:36 20° 44° (NE) 1,317 3.9 -33.0°
Drops below altitude 10° 02:25:54 10° 47° (NE) 1,827 4.8 -32.8°
Sets 02:28:06 0° 50° (NE) 2,721 6.0 -32.6°
